Content
SEND FEEDBACK

Daily
Averages
Monthly
Summary
Mexico

CANCUN, QUINTANA ROO


Home > North America > Mexico > Quintana Roo
Elevation: 9 meters     Latitude: 21 09N     Longitude: 086 49W

WEATHER
 
SELECT A DAY
Number of Records: 167,712;   Date Range: 1/1/95 - 12/16/14
 
SHARE

PRINT THIS DATA

[ ← Previous Day ]
WEATHER ALMANAC - 1 JANUARY, 2013
[ Next Day → ]
[ °F ]   °C
Weather ElementAverageHighLow
Temperature25.6 °C28 °C (12:44 pm)24 °C (1:40 am)
Dewpoint20.9 °C22 °C (2:45 pm)20 °C (1:40 am)
Humidity75.6 %89 % (11:46 pm)62 % (12:44 pm)
Barometer1016.3 hPa1017.9 hPa (7:46 am)1013.9 hPa (3:44 pm)
Wind Speed13.7 km/h27.8 km/h (11:43 am)
Weather ElementAverage
Visibility11.3 km
Wind DirectionESE (113.5 °)

Weather ElementTotal
Precipitation---
Cooling Degree Days7.7 (Base 18.3)
Growing Degree Days16 (Base 10)
Averaged from 23 records on 1 January, 2013
WEATHER CONDITIONS BREAKOUT
WIND DIRECTION BREAKOUT
WEATHER BY HOUR - 1 JANUARY, 2013
[ °F ]   °C
Local TimeTemperatureDewpointHumidityBarometerVisibilityWind DirectionWind SpeedGust SpeedPrecipitationEventsConditions
1:40 AM24 °C20 °C78 %1017.6 hPa11.3 kmEast (100°)9.3 km/hScattered Clouds
2:40 AM24 °C20 °C78 %1017.3 hPa11.3 kmEast (100°)7.4 km/hScattered Clouds
3:51 AM24 °C20 °C78 %1016.9 hPa11.3 kmEast (100°)7.4 km/hScattered Clouds
4:41 AM24 °C20 °C78 %1016.9 hPa11.3 kmEast (100°)7.4 km/hScattered Clouds
5:43 AM24 °C20 °C78 %1016.6 hPa11.3 kmESE (110°)9.3 km/hScattered Clouds
6:47 AM24 °C20 °C78 %1017.6 hPa11.3 kmEast (100°)9.3 km/hScattered Clouds
7:46 AM25 °C20 °C74 %1017.9 hPa11.3 kmEast (100°)13 km/hScattered Clouds
8:44 AM27 °C20 °C65 %1017.9 hPa11.3 kmESE (120°)18.5 km/hMostly Cloudy
9:45 AM27 °C20 °C65 %1017.9 hPa11.3 kmSE (130°)20.4 km/hScattered Clouds
10:43 AM27 °C21 °C70 %1017.6 hPa11.3 kmSE (130°)20.4 km/hMostly Cloudy
11:43 AM27 °C20 °C65 %1016.9 hPa11.3 kmESE (120°)27.8 km/hMostly Cloudy
12:44 PM28 °C20 °C62 %1015.2 hPa11.3 kmSE (130°)22.2 km/hMostly Cloudy
1:40 PM28 °C21 °C66 %1014.6 hPa11.3 kmSSE (150°)20.4 km/hMostly Cloudy
2:45 PM27 °C22 °C74 %1014.2 hPa11.3 kmESE (120°)16.7 km/hMostly Cloudy
3:44 PM27 °C22 °C74 %1013.9 hPa11.3 kmSE (140°)18.5 km/hMostly Cloudy
4:43 PM26 °C22 °C78 %1014.2 hPa11.3 kmESE (120°)14.8 km/hMostly Cloudy
5:46 PM26 °C22 °C78 %1014.2 hPa11.3 kmESE (120°)13 km/hMostly Cloudy
6:46 PM25 °C22 °C83 %1014.9 hPa11.3 kmEast (90°)9.3 km/hScattered Clouds
7:51 PM26 °C22 °C78 %1015.6 hPa11.3 kmESE (110°)11.1 km/hMostly Cloudy
8:45 PM25 °C22 °C83 %1015.9 hPa11.3 kmESE (110°)9.3 km/hMostly Cloudy
9:48 PM25 °C22 °C83 %1015.9 hPa11.3 kmESE (110°)9.3 km/hMostly Cloudy
10:47 PM25 °C22 °C83 %1015.6 hPa11.3 kmEast (100°)9.3 km/hMostly Cloudy
11:46 PM24 °C22 °C89 %1014.9 hPa11.3 kmEast (100°)9.3 km/hScattered Clouds
Hourly data recorded from MMUN, located 0 kilometers away from Cancun, Quintana Roo







STORIES FROM OUR PARTNERS